DW5977 Weather Reports


Display with metric or nautical units.
time (UTC)temp
F
wind
direction
speed
MPH
gust
MPH
rain 1hr
in
rain 24hr
in
rain mn
in
humidity
%
barometer
mb
20260906214504 72 51 4.0 11.0 0.00 0.00 0.00 57 1018.4
20260906214003 72 61 3.0 11.0 0.00 0.00 0.00 57 1018.4
20260906213503 72 47 3.0 11.0 0.00 0.00 0.00 57 1018.4
20260906213003 72 39 3.0 11.0 0.00 0.00 0.00 56 1018.4
20260906212524 72 25 3.0 11.0 0.00 0.00 0.00 56 1018.5
20260906212003 72 41 4.0 10.0 0.00 0.00 0.00 55 1018.5
20260906211503 72 55 4.0 12.0 0.00 0.00 0.00 54 1018.5
20260906211003 72 58 4.0 12.0 0.00 0.00 0.00 59 1018.5
20260906210503 72 49 3.0 9.0 0.00 0.00 0.00 62 1018.5
20260906210003 72 38 4.0 12.0 0.00 0.00 0.00 61 1018.5
20260906205503 72 43 5.0 12.0 0.00 0.00 0.00 60 1018.5
20260906205003 72 34 4.0 10.0 0.00 0.00 0.00 62 1018.5
20260906204503 72 24 4.0 11.0 0.00 0.00 0.00 61 1018.5
20260906204024 72 31 4.0 12.0 0.00 0.00 0.00 61 1018.5
20260906203503 72 35 4.0 12.0 0.00 0.00 0.00 62 1018.4
20260906203003 72 37 4.0 10.0 0.00 0.00 0.00 63 1018.5
20260906202524 72 32 4.0 10.0 0.00 0.00 0.00 62 1018.4
20260906202003 72 30 4.0 12.0 0.00 0.00 0.00 62 1018.5
20260906201503 73 34 4.0 12.0 0.00 0.00 0.00 60 1018.5
20260906201003 74 35 3.0 9.0 0.00 0.00 0.00 62 1018.3
20260906200503 74 34 3.0 8.0 0.00 0.00 0.00 60 1018.4
20260906200024 74 37 4.0 11.0 0.00 0.00 0.00 62 1018.4
20260906195503 73 43 5.0 11.0 0.00 0.00 0.00 62 1018.4
20260906195003 73 50 5.0 14.0 0.00 0.00 0.00 62 1018.4
20260906194503 73 46 5.0 14.0 0.00 0.00 0.00 62 1018.4
20260906194003 74 37 4.0 10.0 0.00 0.00 0.00 60 1018.4
20260906193503 73 36 5.0 14.0 0.00 0.00 0.00 60 1018.4
20260906193003 72 36 5.0 14.0 0.00 0.00 0.00 60 1018.4
20260906192503 72 38 4.0 13.0 0.00 0.00 0.00 59 1018.4
20260906192003 73 42 3.0 13.0 0.00 0.00 0.00 62 1018.4
20260906191503 73 42 3.0 7.0 0.00 0.00 0.00 61 1018.4
20260906191003 74 42 3.0 7.0 0.00 0.00 0.00 60 1018.5
20260906190504 74 42 4.0 7.0 0.00 0.00 0.00 64 1018.5
20260906190024 73 42 4.0 10.0 0.00 0.00 0.00 61 1018.5
20260906185503 72 43 4.0 11.0 0.00 0.00 0.00 59 1018.5
20260906185003 74 42 4.0 11.0 0.00 0.00 0.00 59 1018.5
20260906184503 74 40 2.0 6.0 0.00 0.00 0.00 58 1018.3
20260906184003 73 40 2.0 7.0 0.00 0.00 0.00 63 1018.3
20260906183503 72 41 4.0 11.0 0.00 0.00 0.00 61 1018.4
20260906183024 73 42 4.0 11.0 0.00 0.00 0.00 61 1018.5
20260906182503 74 42 3.0 10.0 0.00 0.00 0.00 60 1018.6
20260906182003 74 42 3.0 7.0 0.00 0.00 0.00 59 1018.5
20260906181503 73 42 2.0 5.0 0.00 0.00 0.00 63 1018.6
20260906181003 72 42 3.0 7.0 0.00 0.00 0.00 64 1018.6
20260906180503 73 42 3.0 9.0 0.00 0.00 0.00 61 1018.6
20260906180024 74 43 3.0 9.0 0.00 0.00 0.00 63 1018.6
20260906175503 73 43 3.0 9.0 0.00 0.00 0.00 61 1018.5
20260906175003 73 43 3.0 10.0 0.00 0.00 0.00 63 1018.6
20260906174524 72 42 4.0 11.0 0.00 0.00 0.00 64 1018.7
20260906174025 73 42 4.0 11.0 0.00 0.00 0.00 63 1018.6
20260906173503 74 41 3.0 10.0 0.00 0.00 0.00 65 1018.6
20260906173003 73 41 3.0 7.0 0.00 0.00 0.00 65 1018.6
20260906172503 72 41 2.0 5.0 0.00 0.00 0.00 66 1018.7
20260906172003 71 41 2.0 7.0 0.00 0.00 0.00 68 1018.6
20260906171503 71 41 3.0 10.0 0.00 0.00 0.00 67 1018.6
20260906171003 72 43 3.0 10.0 0.00 0.00 0.00 64 1018.6
20260906170503 72 46 3.0 10.0 0.00 0.00 0.00 65 1018.5
20260906170003 73 49 3.0 7.0 0.00 0.00 0.00 63 1018.6
20260906165503 72 49 3.0 7.0 0.00 0.00 0.00 64 1018.6
20260906165003 72 50 4.0 10.0 0.00 0.00 0.00 65 1018.7
20260906164503 73 51 4.0 10.0 0.00 0.00 0.00 65 1018.7
20260906164003 73 49 4.0 10.0 0.00 0.00 0.00 65 1018.7
20260906163503 73 49 4.0 11.0 0.00 0.00 0.00 67 1018.8
20260906163024 72 48 4.0 11.0 0.00 0.00 0.00 67 1018.8
20260906162503 72 39 4.0 15.0 0.00 0.00 0.00 67 1018.8
20260906162024 71 37 4.0 15.0 0.00 0.00 0.00 67 1018.8
20260906161524 70 38 2.0 6.0 0.00 0.00 0.00 71 1018.9
20260906161003 70 38 2.0 6.0 0.00 0.00 0.00 72 1018.8
20260906160524 70 38 3.0 8.0 0.00 0.00 0.00 72 1018.8
20260906160003 71 38 2.0 8.0 0.00 0.00 0.00 72 1018.8
20260906155503 70 38 2.0 6.0 0.00 0.00 0.00 76 1018.8
20260906155003 69 38 2.0 8.0 0.00 0.00 0.00 73 1018.8
20260906154503 70 39 2.0 8.0 0.00 0.00 0.00 71 1018.9
20260906154003 71 40 2.0 6.0 0.00 0.00 0.00 71 1018.9
20260906153503 71 40 2.0 7.0 0.00 0.00 0.00 70 1018.8
20260906153003 72 40 2.0 10.0 0.00 0.00 0.00 71 1018.7
20260906152524 71 38 3.0 10.0 0.00 0.00 0.00 72 1018.7
20260906152003 71 36 4.0 10.0 0.00 0.00 0.00 71 1018.8
20260906151504 70 36 4.0 9.0 0.00 0.00 0.00 70 1018.8
20260906151024 71 36 3.0 10.0 0.00 0.00 0.00 68 1018.8
20260906150503 71 36 3.0 10.0 0.00 0.00 0.00 69 1018.8
20260906150003 71 36 3.0 8.0 0.00 0.00 0.00 71 1018.7
20260906145503 70 35 4.0 11.0 0.00 0.00 0.00 73 1018.7
20260906145024 70 34 5.0 11.0 0.00 0.00 0.00 73 1018.6
20260906144503 70 32 5.0 11.0 0.00 0.00 0.00 72 1018.6
20260906144003 69 28 4.0 11.0 0.00 0.00 0.00 73 1018.6
20260906143524 70 23 4.0 11.0 0.00 0.00 0.00 74 1018.6
20260906143003 70 20 3.0 8.0 0.00 0.00 0.00 76 1018.6
20260906142503 69 18 4.0 9.0 0.00 0.00 0.00 76 1018.5
20260906142024 68 16 4.0 10.0 0.00 0.00 0.00 75 1018.5
20260906141524 69 10 3.0 10.0 0.00 0.00 0.00 78 1018.5
20260906141003 68 5 2.0 9.0 0.00 0.00 0.00 81 1018.5
20260906140503 67 5 2.0 5.0 0.00 0.00 0.00 82 1018.5
20260906140003 67 5 2.0 5.0 0.00 0.00 0.00 82 1018.5
20260906135503 67 5 1.0 4.0 0.00 0.00 0.00 82 1018.5
20260906135003 67 5 1.0 5.0 0.00 0.00 0.00 82 1018.5
20260906134503 67 5 2.0 5.0 0.00 0.00 0.00 82 1018.5
20260906134003 68 5 1.0 4.0 0.00 0.00 0.00 84 1018.5
20260906133503 67 5 1.0 4.0 0.00 0.00 0.00 84 1018.4
20260906133003 66 5 2.0 8.0 0.00 0.00 0.00 86 1018.4
20260906132504 66 5 2.0 8.0 0.00 0.00 0.00 86 1018.4
20260906132003 65 5 2.0 5.0 0.00 0.00 0.00 88 1018.4
20260906131503 64 5 2.0 5.0 0.00 0.00 0.00 90 1018.4
20260906131024 63 5 2.0 5.0 0.00 0.00 0.00 91 1018.4
20260906130503 62 5 1.0 5.0 0.00 0.00 0.00 91 1018.3
20260906130024 62 5 1.0 5.0 0.00 0.00 0.00 92 1018.2
20260906125503 61 0 0.0 0.0 0.00 0.00 0.00 92 1018.3
20260906125003 61 0 0.0 0.0 0.00 0.00 0.00 92 1018.4
20260906124503 61 0 0.0 0.0 0.00 0.00 0.00 92 1018.3
20260906124024 61 0 0.0 0.0 0.00 0.00 0.00 92 1018.3
20260906123503 60 0 0.0 0.0 0.00 0.00 0.00 93 1018.3
20260906123024 60 0 0.0 0.0 0.00 0.00 0.00 93 1018.2
20260906122503 59 0 0.0 0.0 0.00 0.00 0.00 93 1018.2
20260906122003 58 0 0.0 0.0 0.00 0.00 0.00 93 1018.2
20260906121503 58 0 0.0 0.0 0.00 0.00 0.00 93 1018.2
20260906121003 57 0 0.0 0.0 0.00 0.00 0.00 93 1018.1
20260906120503 57 0 0.0 0.0 0.00 0.00 0.00 93 1018.0
20260906120003 57 0 0.0 0.0 0.00 0.00 0.00 93 1017.8
20260906115503 56 0 0.0 0.0 0.00 0.00 0.00 93 1017.8
20260906115003 56 0 0.0 0.0 0.00 0.00 0.00 93 1017.9
20260906114503 55 0 0.0 0.0 0.00 0.00 0.00 93 1018.0
20260906114003 55 0 0.0 0.0 0.00 0.00 0.00 92 1017.8
20260906113524 55 0 0.0 0.0 0.00 0.00 0.00 92 1017.7
20260906113003 55 0 0.0 0.0 0.00 0.00 0.00 92 1017.8
20260906112503 54 0 0.0 0.0 0.00 0.00 0.00 92 1017.6
20260906112003 54 0 0.0 0.0 0.00 0.00 0.00 92 1017.5
20260906111503 54 0 0.0 0.0 0.00 0.00 0.00 92 1017.6
20260906111003 54 0 0.0 0.0 0.00 0.00 0.00 92 1017.5
20260906110503 54 0 0.0 0.0 0.00 0.00 0.00 92 1017.5
20260906110003 55 0 0.0 0.0 0.00 0.00 0.00 92 1017.3
20260906105503 55 0 0.0 0.0 0.00 0.00 0.00 92 1017.3
20260906105003 55 0 0.0 0.0 0.00 0.00 0.00 92 1017.2
20260906104503 55 0 0.0 0.0 0.00 0.00 0.00 92 1017.3
20260906104003 55 0 0.0 0.0 0.00 0.00 0.00 92 1017.1
20260906103503 55 0 0.0 0.0 0.00 0.00 0.00 92 1017.2
20260906103003 55 0 0.0 0.0 0.00 0.00 0.00 92 1017.1
20260906102503 55 0 0.0 0.0 0.00 0.00 0.00 92 1017.0
20260906102003 55 0 0.0 0.0 0.00 0.00 0.00 92 1017.1
20260906101503 55 0 0.0 0.0 0.00 0.00 0.00 92 1017.0
20260906101003 55 0 0.0 0.0 0.00 0.00 0.00 92 1016.9
20260906100503 55 0 0.0 0.0 0.00 0.00 0.00 92 1016.9
20260906100003 55 0 0.0 0.0 0.00 0.00 0.00 91 1017.0
20260906095503 55 0 0.0 0.0 0.00 0.00 0.00 91 1016.9
20260906095003 56 0 0.0 0.0 0.00 0.00 0.00 91 1016.9
20260906094524 56 0 0.0 0.0 0.00 0.00 0.00 91 1016.8
20260906094003 56 0 0.0 0.0 0.00 0.00 0.00 91 1016.7
20260906093503 56 0 0.0 0.0 0.00 0.00 0.00 91 1016.7
20260906093003 56 0 0.0 0.0 0.00 0.00 0.00 91 1016.8
20260906092503 56 0 0.0 0.0 0.00 0.00 0.00 91 1016.7
20260906092003 56 0 0.0 0.0 0.00 0.00 0.00 91 1016.5
20260906091503 56 0 0.0 0.0 0.00 0.00 0.00 91 1016.4
20260906091024 56 0 0.0 0.0 0.00 0.00 0.00 91 1016.4
20260906090503 57 0 0.0 0.0 0.00 0.00 0.00 91 1016.3
20260906090003 57 0 0.0 0.0 0.00 0.00 0.00 91 1016.3
20260906085503 57 0 0.0 0.0 0.00 0.00 0.00 91 1016.3
20260906085003 57 0 0.0 0.0 0.00 0.00 0.00 91 1016.3
20260906084524 57 0 0.0 0.0 0.00 0.00 0.00 91 1016.2
20260906084003 57 0 0.0 0.0 0.00 0.00 0.00 91 1016.2
20260906083503 57 0 0.0 0.0 0.00 0.00 0.00 91 1016.1
20260906083024 58 0 0.0 0.0 0.00 0.00 0.00 91 1016.1
20260906082503 58 0 0.0 0.0 0.00 0.00 0.00 91 1016.2
20260906082003 58 0 0.0 0.0 0.00 0.00 0.00 91 1016.0
20260906081503 58 0 0.0 0.0 0.00 0.00 0.00 91 1016.0
20260906081003 58 0 0.0 0.0 0.00 0.00 0.00 90 1015.9
20260906080503 58 0 0.0 0.0 0.00 0.00 0.00 91 1015.8
20260906080024 58 0 0.0 0.0 0.00 0.00 0.00 91 1015.7
20260906075503 59 0 0.0 0.0 0.00 0.00 0.00 91 1015.7
20260906075003 59 0 0.0 0.0 0.00 0.00 0.00 90 1015.8
20260906074503 59 0 0.0 0.0 0.00 0.00 0.00 91 1015.8
20260906074003 59 0 0.0 0.0 0.00 0.00 0.00 91 1015.8
20260906073524 59 0 0.0 0.0 0.00 0.00 0.00 90 1015.9
20260906073003 60 0 0.0 0.0 0.00 0.00 0.00 90 1015.8
20260906072503 60 0 0.0 0.0 0.00 0.00 0.00 90 1015.8
20260906072003 60 0 0.0 0.0 0.00 0.00 0.00 90 1015.8
20260906071503 60 0 0.0 0.0 0.00 0.00 0.00 90 1015.7
20260906071003 60 0 0.0 0.0 0.00 0.00 0.00 90 1015.8
20260906070503 60 0 0.0 0.0 0.00 0.00 0.00 90 1015.6
20260906070003 60 0 0.0 0.0 0.00 0.00 0.00 90 1015.6
20260906065503 60 0 0.0 0.0 0.00 0.00 0.00 91 1015.7
20260906065003 60 0 0.0 0.0 0.00 0.00 0.00 91 1015.8
20260906064503 60 0 0.0 0.0 0.00 0.00 0.00 90 1015.7
20260906064003 60 0 0.0 0.0 0.00 0.00 0.00 90 1015.7
20260906063503 60 0 0.0 0.0 0.00 0.00 0.00 90 1015.7
20260906063003 60 0 0.0 0.0 0.00 0.00 0.00 90 1015.7
20260906062503 60 0 0.0 0.0 0.00 0.00 0.00 90 1015.7
20260906062024 60 0 0.0 0.0 0.00 0.00 0.00 90 1015.8
20260906061503 60 0 0.0 0.0 0.00 0.00 0.00 90 1015.8
20260906061003 60 0 0.0 0.0 0.00 0.00 0.00 90 1015.9
20260906060503 60 0 0.0 0.0 0.00 0.00 0.00 90 1015.9
20260906060003 60 0 0.0 0.0 0.00 0.00 0.00 90 1015.8
20260906055503 60 0 0.0 0.0 0.00 0.00 0.00 90 1015.7
20260906055024 60 0 0.0 0.0 0.00 0.00 0.00 90 1015.8
20260906054524 60 0 0.0 0.0 0.00 0.00 0.00 90 1015.9
20260906054003 60 0 0.0 0.0 0.00 0.00 0.00 90 1015.9
20260906053503 60 0 0.0 0.0 0.00 0.00 0.00 90 1015.8
20260906053003 61 0 0.0 0.0 0.00 0.00 0.00 90 1015.8
20260906052503 61 0 0.0 0.0 0.00 0.00 0.00 89 1015.8
20260906052003 61 0 0.0 0.0 0.00 0.00 0.00 89 1015.8
20260906051503 61 0 0.0 0.0 0.00 0.00 0.00 89 1015.8
20260906051003 61 0 0.0 0.0 0.00 0.00 0.00 90 1015.7
20260906050503 61 0 0.0 0.0 0.00 0.00 0.00 90 1015.8
20260906050003 61 0 0.0 0.0 0.00 0.00 0.00 90 1015.6
20260906045503 61 0 0.0 0.0 0.00 0.00 0.00 90 1015.6
20260906045003 61 0 0.0 0.0 0.00 0.00 0.00 90 1015.6
20260906044503 61 0 0.0 0.0 0.00 0.00 0.00 90 1015.7
20260906044003 61 0 0.0 0.0 0.00 0.00 0.00 90 1015.6
20260906043503 61 0 0.0 0.0 0.00 0.00 0.00 90 1015.6
20260906043024 61 0 0.0 0.0 0.00 0.00 0.00 90 1015.5
20260906042503 61 0 0.0 0.0 0.00 0.00 0.00 90 1015.7
20260906042003 61 0 0.0 0.0 0.00 0.00 0.00 90 1015.6
20260906041503 61 0 0.0 0.0 0.00 0.00 0.00 90 1015.6
20260906041024 61 0 0.0 0.0 0.00 0.00 0.00 90 1015.5
20260906040503 61 0 0.0 0.0 0.00 0.00 0.00 90 1015.5
20260906040003 61 0 0.0 0.0 0.00 0.00 0.00 90 1015.5
20260906035503 61 0 0.0 0.0 0.00 0.00 0.00 90 1015.4
20260906035003 61 0 0.0 0.0 0.00 0.00 0.00 90 1015.4
20260906034503 61 0 0.0 0.0 0.00 0.00 0.00 90 1015.5
20260906034003 61 0 0.0 0.0 0.00 0.00 0.00 90 1015.5
20260906033503 61 0 0.0 0.0 0.00 0.00 0.00 90 1015.5
20260906033024 61 0 0.0 0.0 0.00 0.00 0.00 90 1015.5
20260906032503 61 0 0.0 0.0 0.00 0.00 0.00 90 1015.5
20260906032003 61 0 0.0 0.0 0.00 0.00 0.00 89 1015.5
20260906031524 61 0 0.0 0.0 0.00 0.00 0.00 89 1015.4
20260906031003 61 0 0.0 0.0 0.00 0.00 0.00 89 1015.3
20260906030503 61 0 0.0 0.0 0.00 0.00 0.00 89 1015.3
20260906030003 61 0 0.0 0.0 0.00 0.00 0.00 89 1015.2
20260906025503 61 0 0.0 0.0 0.00 0.00 0.00 89 1015.2
20260906025024 61 0 0.0 0.0 0.00 0.00 0.00 89 1015.2
20260906024503 61 0 0.0 0.0 0.00 0.00 0.00 89 1015.2
20260906024003 61 0 0.0 0.0 0.00 0.00 0.00 89 1015.3
20260906023503 61 0 0.0 0.0 0.00 0.00 0.00 89 1015.2
20260906023003 60 0 0.0 0.0 0.00 0.00 0.00 89 1015.3
20260906022503 60 0 0.0 0.0 0.00 0.00 0.00 89 1015.3
20260906022024 60 0 0.0 0.0 0.00 0.00 0.00 88 1015.3
20260906021503 60 0 0.0 0.0 0.00 0.00 0.00 87 1015.4
20260906021003 60 0 0.0 0.0 0.00 0.00 0.00 87 1015.3
20260906020503 60 0 0.0 0.0 0.00 0.00 0.00 87 1015.1
20260906020003 60 0 0.0 0.0 0.00 0.00 0.00 87 1015.0
20260906015503 60 0 0.0 0.0 0.00 0.00 0.00 87 1015.0
20260906015003 61 0 0.0 0.0 0.00 0.00 0.00 86 1015.0
20260906014524 61 0 0.0 0.0 0.00 0.00 0.00 86 1015.0
20260906014003 61 0 0.0 0.0 0.00 0.00 0.00 86 1015.0
20260906013503 61 0 0.0 0.0 0.00 0.00 0.00 86 1015.0
20260906013024 61 0 0.0 0.0 0.00 0.00 0.00 85 1014.9
20260906012503 61 0 0.0 0.0 0.00 0.00 0.00 85 1015.0
20260906012003 62 0 0.0 0.0 0.00 0.00 0.00 85 1015.0
20260906011503 62 0 0.0 0.0 0.00 0.00 0.00 84 1015.0
20260906011024 62 0 0.0 0.0 0.00 0.00 0.00 84 1014.9
20260906010503 62 0 0.0 0.0 0.00 0.00 0.00 83 1014.8
20260906010003 62 0 0.0 0.0 0.00 0.00 0.00 83 1014.7
20260906005524 62 0 0.0 0.0 0.00 0.00 0.00 83 1014.6
20260906005003 63 0 0.0 0.0 0.00 0.00 0.00 83 1014.7
20260906004524 63 0 0.0 0.0 0.00 0.00 0.00 82 1014.7
20260906004003 63 0 0.0 0.0 0.00 0.00 0.00 82 1014.6
20260906003503 63 0 0.0 0.0 0.00 0.00 0.00 81 1014.6
20260906003003 64 0 0.0 0.0 0.00 0.00 0.00 80 1014.6
20260906002503 64 0 0.0 0.0 0.00 0.00 0.00 80 1014.6
20260906002003 64 0 0.0 0.0 0.00 0.00 0.00 79 1014.6
20260906001503 65 0 0.0 0.0 0.00 0.00 0.00 78 1014.6
20260906001003 65 0 0.0 0.0 0.00 0.00 0.00 77 1014.6
20260906000524 66 0 0.0 0.0 0.00 0.00 0.00 76 1014.6
20260906000003 66 0 0.0 0.0 0.00 0.00 0.00 75 1014.5
20260905235503 67 0 0.0 0.0 0.00 0.00 0.00 73 1014.5
20260905235003 68 0 0.0 0.0 0.00 0.00 0.00 73 1014.5
20260905234503 68 0 0.0 0.0 0.00 0.00 0.00 71 1014.5
20260905234003 69 0 0.0 0.0 0.00 0.00 0.00 69 1014.6
20260905233503 69 0 0.0 0.0 0.00 0.00 0.00 67 1014.5
20260905233003 70 5 0.0 2.0 0.00 0.00 0.00 66 1014.6
20260905232503 70 5 1.0 4.0 0.00 0.00 0.00 65 1014.7
20260905232003 71 5 1.0 4.0 0.00 0.00 0.00 64 1014.6
20260905231503 71 5 1.0 4.0 0.00 0.00 0.00 63 1014.6
20260905231003 72 5 1.0 4.0 0.00 0.00 0.00 62 1014.4
20260905230524 72 5 1.0 4.0 0.00 0.00 0.00 61 1014.5
20260905230003 73 5 1.0 3.0 0.00 0.00 0.00 61 1014.5
20260905225503 73 5 1.0 4.0 0.00 0.00 0.00 59 1014.5
20260905225003 73 5 2.0 4.0 0.00 0.00 0.00 58 1014.5
20260905224503 73 5 1.0 3.0 0.00 0.00 0.00 58 1014.4
20260905224024 73 5 1.0 4.0 0.00 0.00 0.00 58 1014.4
20260905223503 73 5 2.0 5.0 0.00 0.00 0.00 58 1014.5
20260905223003 73 5 2.0 5.0 0.00 0.00 0.00 57 1014.4
20260905222503 74 5 2.0 5.0 0.00 0.00 0.00 57 1014.5
20260905222003 74 5 2.0 5.0 0.00 0.00 0.00 56 1014.5
20260905221524 74 5 2.0 5.0 0.00 0.00 0.00 57 1014.5
20260905221003 74 5 2.0 9.0 0.00 0.00 0.00 59 1014.5
20260905220503 74 5 2.0 9.0 0.00 0.00 0.00 59 1014.4
20260905220003 74 5 2.0 8.0 0.00 0.00 0.00 57 1014.4
20260905215504 74 5 3.0 8.0 0.00 0.00 0.00 58 1014.4
20260905215003 74 5 3.0 9.0 0.00 0.00 0.00 58 1014.3